| time (UTC) | temp F | wind direction | speed MPH | gust MPH | rain 1hr in | rain 24hr in | rain mn in | humidity % | barometer mb |
| 20260506033002 | 62 | 235 | 0.0 | 2.0 | 0.00 | 0.00 | 0.00 | 71 | 1011.9 |
| 20260506031506 | 62 | 262 | 0.0 | 2.0 | 0.00 | 0.00 | 0.00 | 70 | 1011.8 |
| 20260506030003 | 63 | 264 | 0.0 | 2.0 | 0.00 | 0.00 | 0.00 | 69 | 1011.8 |
| 20260506024503 | 63 | 232 | 0.0 | 4.0 | 0.00 | 0.00 | 0.00 | 69 | 1011.8 |
| 20260506023106 | 64 | 265 | 0.0 | 2.0 | 0.00 | 0.00 | 0.00 | 68 | 1011.8 |
| 20260506021601 | 64 | 265 | 0.0 | 7.0 | 0.00 | 0.00 | 0.00 | 67 | 1011.9 |
| 20260506014558 | 64 | 189 | 1.0 | 6.0 | 0.00 | 0.00 | 0.00 | 66 | 1011.5 |
| 20260506013102 | 64 | 263 | 1.0 | 10.0 | 0.00 | 0.00 | 0.00 | 66 | 1011.3 |
| 20260506011622 | 65 | 281 | 0.0 | 2.0 | 0.00 | 0.00 | 0.00 | 66 | 1011.2 |
| 20260506010115 | 65 | 281 | 0.0 | 3.0 | 0.00 | 0.00 | 0.00 | 64 | 1011.1 |
| 20260506004556 | 66 | 281 | 0.0 | 2.0 | 0.00 | 0.00 | 0.00 | 63 | 1010.9 |
| 20260506003057 | 66 | 281 | 0.0 | 5.0 | 0.00 | 0.00 | 0.00 | 61 | 1010.7 |
| 20260506001558 | 67 | 281 | 1.0 | 6.0 | 0.00 | 0.00 | 0.00 | 61 | 1010.5 |
| 20260506000059 | 67 | 281 | 1.0 | 9.0 | 0.00 | 0.00 | 0.00 | 60 | 1010.3 |
| 20260505234553 | 68 | 265 | 1.0 | 6.0 | 0.00 | 0.00 | 0.00 | 60 | 1010.2 |
| 20260505233053 | 68 | 262 | 2.0 | 10.0 | 0.00 | 0.00 | 0.00 | 58 | 1009.9 |
| 20260505231554 | 69 | 264 | 0.0 | 5.0 | 0.00 | 0.00 | 0.00 | 58 | 1009.7 |
| 20260505230058 | 70 | 185 | 2.0 | 10.0 | 0.00 | 0.00 | 0.00 | 58 | 1009.7 |
| 20260505224552 | 70 | 269 | 0.0 | 4.0 | 0.00 | 0.00 | 0.00 | 58 | 1009.3 |
| 20260505223050 | 70 | 190 | 1.0 | 6.0 | 0.00 | 0.00 | 0.00 | 56 | 1009.2 |
| 20260505221600 | 71 | 167 | 1.0 | 8.0 | 0.00 | 0.00 | 0.00 | 55 | 1009.4 |
| 20260505220100 | 71 | 224 | 1.0 | 7.0 | 0.00 | 0.00 | 0.00 | 54 | 1009.3 |
| 20260505214553 | 72 | 272 | 0.0 | 5.0 | 0.00 | 0.00 | 0.00 | 54 | 1009.2 |
| 20260505213048 | 72 | 236 | 1.0 | 6.0 | 0.00 | 0.00 | 0.00 | 54 | 1009.1 |
| 20260505211546 | 73 | 273 | 3.0 | 8.0 | 0.00 | 0.00 | 0.00 | 54 | 1009.2 |
| 20260505210051 | 73 | 284 | 1.0 | 9.0 | 0.00 | 0.00 | 0.00 | 53 | 1009.0 |
| 20260505204554 | 74 | 280 | 1.0 | 7.0 | 0.00 | 0.00 | 0.00 | 55 | 1009.2 |
| 20260505203041 | 74 | 271 | 1.0 | 7.0 | 0.00 | 0.00 | 0.00 | 56 | 1009.1 |
| 20260505201543 | 74 | 262 | 1.0 | 10.0 | 0.00 | 0.00 | 0.00 | 53 | 1009.4 |
| 20260505200039 | 75 | 181 | 4.0 | 15.0 | 0.00 | 0.00 | 0.00 | 51 | 1009.5 |
| 20260505194537 | 75 | 264 | 2.0 | 10.0 | 0.00 | 0.00 | 0.00 | 54 | 1009.7 |
| 20260505193041 | 75 | 276 | 3.0 | 8.0 | 0.00 | 0.00 | 0.00 | 52 | 1010.0 |
| 20260505191532 | 75 | 212 | 3.0 | 14.0 | 0.00 | 0.00 | 0.00 | 52 | 1010.0 |
| 20260505190029 | 76 | 275 | 1.0 | 12.0 | 0.00 | 0.00 | 0.00 | 50 | 1010.3 |
| 20260505184528 | 77 | 272 | 3.0 | 9.0 | 0.00 | 0.00 | 0.00 | 48 | 1010.5 |
| 20260505183035 | 78 | 282 | 1.0 | 9.0 | 0.00 | 0.00 | 0.00 | 49 | 1010.5 |
| 20260505181528 | 79 | 215 | 5.0 | 14.0 | 0.00 | 0.00 | 0.00 | 46 | 1010.4 |
| 20260505180024 | 79 | 268 | 0.0 | 11.0 | 0.00 | 0.00 | 0.00 | 46 | 1010.4 |
| 20260505174518 | 78 | 266 | 1.0 | 14.0 | 0.00 | 0.00 | 0.00 | 50 | 1010.6 |
| 20260505173015 | 77 | 270 | 2.0 | 9.0 | 0.00 | 0.00 | 0.00 | 46 | 1010.7 |
| 20260505171512 | 77 | 271 | 1.0 | 8.0 | 0.00 | 0.00 | 0.00 | 53 | 1010.8 |
| 20260505170011 | 77 | 286 | 1.0 | 10.0 | 0.00 | 0.00 | 0.00 | 48 | 1011.1 |
| 20260505164507 | 76 | 207 | 2.0 | 8.0 | 0.00 | 0.00 | 0.00 | 51 | 1011.4 |
| 20260505163007 | 76 | 269 | 0.0 | 5.0 | 0.00 | 0.00 | 0.00 | 49 | 1011.4 |
| 20260505161604 | 75 | 269 | 1.0 | 9.0 | 0.00 | 0.00 | 0.00 | 49 | 1011.7 |
| 20260505153107 | 74 | 269 | 0.0 | 10.0 | 0.00 | 0.00 | 0.00 | 54 | 1012.2 |
| 20260505151550 | 73 | 264 | 2.0 | 7.0 | 0.00 | 0.00 | 0.00 | 53 | 1012.3 |
| 20260505124510 | 57 | 271 | 0.0 | 2.0 | 0.00 | 0.00 | 0.00 | 86 | 1012.6 |
| 20260505123010 | 54 | 267 | 1.0 | 4.0 | 0.00 | 0.00 | 0.00 | 91 | 1012.7 |
| 20260505121502 | 53 | 267 | 0.0 | 2.0 | 0.00 | 0.00 | 0.00 | 96 | 1012.9 |
| 20260505120108 | 52 | 267 | 0.0 | 2.0 | 0.00 | 0.00 | 0.00 | 96 | 1012.8 |
| 20260505114556 | 50 | 267 | 0.0 | 0.0 | 0.00 | 0.00 | 0.00 | 96 | 1012.8 |
| 20260505113110 | 48 | 267 | 0.0 | 0.0 | 0.00 | 0.00 | 0.00 | 95 | 1012.9 |
| 20260505111553 | 47 | 267 | 0.0 | 0.0 | 0.00 | 0.00 | 0.00 | 95 | 1013.0 |
| 20260505101544 | 45 | 267 | 0.0 | 0.0 | 0.00 | 0.00 | 0.00 | 94 | 1012.3 |
| 20260505100043 | 45 | 267 | 0.0 | 0.0 | 0.00 | 0.00 | 0.00 | 94 | 1012.1 |
| 20260505094542 | 45 | 267 | 0.0 | 0.0 | 0.00 | 0.00 | 0.00 | 93 | 1012.0 |
| 20260505093043 | 45 | 267 | 0.0 | 0.0 | 0.00 | 0.00 | 0.00 | 93 | 1011.8 |
| 20260505091540 | 45 | 267 | 0.0 | 0.0 | 0.00 | 0.00 | 0.00 | 93 | 1011.9 |
| 20260505090043 | 45 | 267 | 0.0 | 0.0 | 0.00 | 0.00 | 0.00 | 93 | 1011.9 |
| 20260505084545 | 45 | 267 | 0.0 | 0.0 | 0.00 | 0.00 | 0.00 | 93 | 1011.8 |
| 20260505083046 | 45 | 267 | 0.0 | 0.0 | 0.00 | 0.00 | 0.00 | 93 | 1011.9 |
| 20260505081536 | 46 | 267 | 0.0 | 0.0 | 0.00 | 0.00 | 0.00 | 93 | 1011.9 |
| 20260505080033 | 46 | 267 | 0.0 | 0.0 | 0.00 | 0.00 | 0.00 | 93 | 1012.0 |
| 20260505074533 | 46 | 267 | 0.0 | 0.0 | 0.00 | 0.00 | 0.00 | 93 | 1011.9 |
| 20260505073033 | 46 | 267 | 0.0 | 0.0 | 0.00 | 0.00 | 0.00 | 92 | 1011.8 |
| 20260505071531 | 46 | 267 | 0.0 | 0.0 | 0.00 | 0.00 | 0.00 | 92 | 1011.7 |
| 20260505070039 | 46 | 267 | 0.0 | 0.0 | 0.00 | 0.00 | 0.00 | 92 | 1011.9 |
| 20260505064528 | 46 | 267 | 0.0 | 0.0 | 0.00 | 0.00 | 0.00 | 92 | 1011.9 |
| 20260505063031 | 46 | 267 | 0.0 | 0.0 | 0.00 | 0.00 | 0.00 | 92 | 1012.0 |
| 20260505061525 | 46 | 267 | 0.0 | 0.0 | 0.00 | 0.00 | 0.00 | 91 | 1012.1 |
| 20260505060028 | 47 | 267 | 0.0 | 0.0 | 0.00 | 0.00 | 0.00 | 91 | 1012.0 |
| 20260505054521 | 47 | 267 | 0.0 | 0.0 | 0.00 | 0.00 | 0.00 | 91 | 1012.0 |
| 20260505053021 | 47 | 267 | 0.0 | 0.0 | 0.00 | 0.00 | 0.00 | 90 | 1012.2 |
| 20260505051519 | 47 | 267 | 0.0 | 0.0 | 0.00 | 0.00 | 0.00 | 90 | 1012.2 |
| 20260505041509 | 48 | 267 | 0.0 | 0.0 | 0.00 | 0.00 | 0.00 | 88 | 1012.6 |
| 20260505040007 | 49 | 267 | 0.0 | 0.0 | 0.00 | 0.00 | 0.00 | 88 | 1012.5 |
| 20260505034507 | 49 | 267 | 0.0 | 0.0 | 0.00 | 0.00 | 0.00 | 87 | 1012.5 |